SCP
0 0 0 0 0 0 0 0 0 0 0 0 0 0 0 -0 0 0 0 0 0 0 0 0 0 0 0 0 0 0 0 0 0 0 0 0 0 0 0 0 0 1 0 0 0
0 0 0 0 0 0 0 0 -0 0 0 0 0 0 0 -0 -0 0 0 0 0 0 0 0 0 0 0 0 0 0 0 0 0 0 0 0 0 0 0 0 0 0 0 1 1
0 0 0 0 0 0 0 0 0 0 0 0 0 0 0 -0 -0 0 0 0 0 0 0 0 0 0 0 0 0 0 0 0 0 0 0 0 -0 0 0 0 0 0 0 0 1
0 0 0 0 0 0 0 0 0 0 0 0 0 0 0 0 -0 0 0 0 0 0 0 0 0 0 0 0 0 0 0 0 0 0 0 0 -0 0 0 0 0 0 0 0 0
0 0 0 0 0 0 0 0 0 -0 -0 -0 -0 0 0 0 0 0 0 0 0 0 0 0 0 0 0 0 0 0 0 0 0 0 0 0 0 -0 0 0 0 0 0 0 0
0 0 0 0 0 0 0 0 -0 -0 -0 -0 -0 -0 -0 0 0 0 0 0 0 0 0 0 0 0 0 0 0 0 0 0 0 0 0 0 0 -0 -0 0 0 0 0 0 0
0 0 0 0 0 0 0 0 0 -0 -0 -0 -0 0 -0 -0 0 0 0 0 0 0 0 0 0 0 0 0 0 0 0 0 0 0 0 0 0 0 -0 0 0 0 0 0 0
0 0 0 0 0 0 0 0 0 0 0 0 0 0 0 0 0 0 0 0 0 0 0 0 0 0 0 0 0 0 0 0 0 0 0 0 0 0 -0 0 0 0 0 0 0
0 0 0 0 0 -0 -0 0 0 0 0 0 0 0 0 0 0 0 0 0 0 0 0 0 0 0 0 0 0 0 0 0 0 0 0 0 -0 0 -0 0 0 0 0 0 0
0 0 0 0 0 -0 -0 0 0 0 0 0 0 0 0 0 0 0 0 0 0 0 0 0 0 0 0 0 0 0 0 0 0 0 0 0 0 -0 -0 0 0 0 0 0 0
0 0 0 0 0 0 0 0 0 0 0 0 0 0 0 0 0 0 0 0 0 0 0 0 0 0 0 0 0 0 0 0 0 0 0 -0 0 -0 -0 -0 0 0 0 0 0
0 0 0 0 0 0 0 0 0 0 0 0 0 0 0 0 0 0 0 0 0 0 0 0 0 0 0 0 0 0 0 0 0 0 0 0 0 0 0 0 -0 0 0 0 0
0 0 0 0 0 0 0 0 0 0 0 0 0 0 0 0 0 0 0 0 0 0 0 0 0 0 0 0 0 0 0 0 0 0 0 0 0 0 0 0 0 0 0 0 0
-0 0 0 0 0 0 0 0 0 -0 0 0 0 0 0 0 0 0 0 0 0 0 0 0 0 0 0 0 0 0 0 0 0 0 0 0 0 0 0 0 0 0 -0 0 0
-0 0 0 0 0 0 0 0 0 0 0 0 0 0 0 0 0 0 0 0 0 0 0 0 0 0 0 0 0 0 0 0 0 0 0 0 0 -0 0 -0 -0 -0 -0 -0 0
-0 0 0 0 0 0 0 0 0 0 0 0 0 0 0 0 0 0 0 0 0 0 0 0 0 0 0 0 0 0 0 0 0 0 0 0 0 -0 0 0 0 0 0 0 0
0 0 0 0 0 0 0 0 0 0 0 0 0 0 0 -0 0 0 0 0 0 0 0 0 0 0 0 0 0 0 0 0 0 0 0 0 0 0 0 0 0 0 0 0 0
0 0 0 0 0 0 0 0 0 0 0 0 0 0 0 -0 0 0 0 0 0 0 0 0 0 0 0 0 0 0 0 0 0 0 0 0 -0 -0 0 0 0 0 0 0 0
0 0 0 0 0 0 0 0 0 0 0 0 0 0 0 -0 -0 0 0 0 0 0 0 0 0 0 0 0 0 0 0 0 0 0 0 0 0 0 0 0 0 0 0 0 0
0 0 0 0 0 0 0 0 0 0 0 0 0 0 0 0 -0 -0 0 0 0 0 0 0 0 0 0 0 0 0 0 0 0 0 0 -0 -0 0 0 0 0 0 0 0 0
0 0 0 0 0 0 0 0 0 0 0 0 0 0 0 0 0 -0 -0 0 0 0 0 0 0 0 0 0 0 0 0 0 0 0 0 -0 0 -0 0 0 0 -0 0 0 0
0 0 0 0 0 0 0 0 0 0 0 0 0 0 0 0 0 0 0 0 0 0 0 0 0 0 0 0 0 0 0 0 0 0 0 0 0 0 0 -0 -0 -0 0 0 0
0 0 0 0 0 0 0 0 0 0 0 0 0 0 0 0 0 0 0 0 0 0 0 0 0 0 0 0 0 0 0 0 0 0 0 0 0 0 0 0 0 0 0 0 0
0 0 0 0 0 0 0 0 0 0 0 0 0 0 0 -0 0 0 0 0 0 0 0 0 0 0 0 0 0 0 0 0 0 0 0 0 0 0 0 0 -0 -0 0 0 0
0 0 0 0 0 0 0 0 0 0 0 0 0 0 0 0 0 0 0 0 0 0 0 0 0 0 0 0 0 0 0 0 0 0 0 0 0 0 0 -0 0 -0 0 0 0
0 0 0 0 0 0 0 0 0 0 0 0 0 0 0 -0 0 0 0 0 0 0 0 0 0 0 0 0 0 0 0 0 0 0 0 0 0 0 0 0 0 0 0 0 0
0 0 0 0 0 0 0 0 0 0 0 0 0 0 0 0 0 0 0 0 0 0 0 0 0 0 0 0 0 -0 0 0 0 0 0 0 -0 0 0 0 0 0 0 0 0
Wind_Speed_500mb
43 46 46 46 38 36 35 25 24 21 19 14 14 10 11 12 15 22 17 10 36 18 14 29 29 24 31 19 16 11 6 11 15 15 10 10 8 15 17 20 17 6 12 11 48
43 46 48 44 36 31 27 21 24 16 14 14 11 8 6 10 9 23 17 7 18 24 15 29 34 28 15 13 13 10 9 7 8 5 9 12 9 17 17 41 21 39 7 32 53
42 46 45 35 26 24 21 23 17 15 16 15 12 8 1 7 5 9 28 5 12 24 22 31 31 30 13 16 7 7 13 8 11 20 14 13 6 11 14 8 17 45 40 15 48
39 43 40 33 26 21 20 15 14 14 16 14 13 8 3 11 3 13 4 21 11 22 27 20 28 21 10 13 12 4 6 13 9 9 5 6 5 15 10 14 34 48 40 29 49
35 38 34 29 24 23 20 10 12 15 14 12 11 7 4 1 5 1 12 19 16 27 34 24 32 17 9 13 17 2 8 22 14 6 14 16 8 8 49 44 44 46 22 31 39
32 31 29 22 20 24 21 12 10 9 10 11 11 6 2 2 7 11 16 15 22 34 35 27 22 22 13 9 12 15 17 34 27 14 15 13 14 9 54 42 40 49 34 26 38
26 27 22 18 15 20 20 16 11 7 9 10 11 8 8 5 4 12 8 9 19 40 41 30 16 18 14 10 14 19 13 12 13 18 7 10 12 19 71 55 63 58 43 24 42
24 20 20 16 10 14 14 11 9 8 8 9 12 6 5 9 12 3 8 0 17 36 40 32 10 16 6 12 9 9 10 11 11 34 22 31 13 28 52 37 56 57 50 32 25
24 18 14 14 10 13 11 10 11 11 11 11 14 8 4 6 15 7 2 0 9 23 35 29 13 6 8 11 7 6 8 11 14 38 16 19 9 24 20 48 55 63 55 40 22
27 16 13 12 13 10 4 6 7 13 10 6 16 7 12 15 11 6 8 10 12 28 27 17 6 5 4 6 25 12 9 5 10 22 20 26 5 25 48 49 57 65 49 45 30
27 19 11 10 12 12 6 5 7 1 21 9 9 5 15 10 10 7 10 18 10 18 7 21 9 20 8 6 9 12 11 12 7 9 18 24 16 27 39 35 53 70 56 54 40
25 21 12 10 9 9 5 2 7 5 7 17 7 8 13 12 9 11 6 6 4 9 6 8 13 13 14 7 11 12 11 4 2 4 12 15 19 18 39 44 63 74 72 65 56
23 19 14 9 11 9 5 1 3 7 6 9 12 11 9 9 9 11 13 12 14 10 4 3 8 18 11 8 10 3 11 7 4 3 3 9 12 16 17 35 52 67 69 54 40
22 17 12 8 7 6 5 4 3 3 7 10 6 7 7 5 9 11 13 8 8 9 7 1 5 21 14 8 9 5 5 9 5 5 6 2 8 13 23 26 22 59 73 75 56
18 15 12 7 7 5 6 9 8 3 10 14 6 4 8 6 10 9 18 15 9 13 1 4 11 18 11 8 5 5 5 9 6 7 6 3 4 8 5 17 40 42 48 67 57
13 11 12 9 4 4 1 2 7 10 4 6 4 2 4 5 6 3 8 13 13 7 1 3 5 7 6 5 5 7 10 13 9 5 4 13 12 8 12 14 10 21 53 63 64
6 9 12 10 7 4 2 5 8 12 2 4 4 3 1 6 6 4 2 7 6 7 0 8 5 2 4 12 5 9 7 3 3 3 10 5 10 23 8 14 14 19 29 36 53
4 6 13 11 6 2 1 7 15 6 5 4 4 2 5 3 6 6 6 7 5 9 5 7 7 7 2 4 10 7 11 8 11 7 8 1 14 11 10 23 41 42 36 28 34
11 8 18 15 6 1 3 9 11 10 7 3 3 4 4 3 5 4 6 4 9 11 9 6 3 3 2 3 2 8 7 8 8 4 5 8 14 15 15 19 27 31 33 38 41
13 5 22 19 9 6 8 2 1 6 5 2 3 5 6 9 6 4 4 5 6 10 7 7 8 3 4 3 8 3 9 5 4 3 7 10 10 12 13 13 11 17 31 33 41
8 1 21 21 12 4 6 8 7 11 9 4 4 4 3 8 10 11 12 5 7 9 12 9 7 4 12 10 12 6 6 3 7 8 8 6 11 12 10 13 16 19 26 34 50
4 4 17 20 5 5 3 5 6 6 4 6 2 6 5 5 10 8 13 10 25 24 12 12 9 7 8 2 3 8 7 10 6 9 2 6 18 6 12 15 22 23 23 33 50
5 4 10 18 6 7 11 8 6 4 6 5 7 12 7 8 6 12 10 10 31 20 15 12 3 6 3 3 1 10 12 15 6 4 13 7 11 0 10 13 9 20 27 42 53
4 5 6 10 8 3 8 7 9 9 9 11 7 5 6 8 11 7 9 7 20 21 19 13 6 10 13 9 9 11 17 27 24 15 15 30 19 11 9 10 12 20 32 48 54
6 3 2 5 5 4 1 5 8 8 7 9 5 8 8 5 7 9 8 3 6 13 11 10 11 10 9 7 8 12 18 29 39 36 24 3 28 26 26 13 21 29 35 48 54
5 8 6 5 4 4 1 3 5 11 7 11 8 18 6 8 9 7 9 9 11 6 13 6 4 5 7 5 12 9 16 25 39 41 44 46 54 27 32 32 23 37 48 59 60
6 6 5 2 2 5 5 4 3 8 16 19 11 17 16 12 28 35 25 9 8 15 14 13 11 5 8 5 7 12 30 32 16 17 37 38 52 6 13 23 32 36 47 61 62
Wind_Direction_500mb
352 344 343 340 342 337 338 334 325 322 315 307 315 302 261 234 221 246 232 219 203 184 200 191 188 189 190 181 183 157 112 179 179 159 157 70 52 355 9 342 338 289 266 237 162
349 346 349 352 343 343 350 347 339 342 331 327 330 334 286 235 230 278 225 177 208 201 190 190 175 190 189 173 188 157 200 155 163 105 99 79 75 349 5 342 35 21 20 161 167
350 354 356 358 358 4 9 1 9 7 354 346 345 336 163 165 190 247 229 257 247 217 207 181 177 190 202 160 179 189 201 148 46 102 118 108 47 0 6 5 26 339 327 201 184
354 358 3 11 15 16 12 19 29 12 4 3 1 350 157 169 156 128 148 287 211 220 201 172 171 178 198 166 159 171 168 146 126 71 81 54 321 340 296 251 316 331 318 225 197
355 0 10 14 20 17 17 36 26 23 28 21 13 14 73 226 330 163 338 228 203 194 204 165 165 168 202 150 135 198 122 142 129 149 38 338 3 324 287 281 308 321 329 203 205
351 2 11 22 22 21 23 19 14 27 43 24 19 45 49 45 2 212 4 186 197 192 199 172 175 170 189 137 149 159 152 145 168 134 26 14 340 342 267 280 292 325 329 237 220
348 357 8 9 16 19 17 26 29 40 41 39 18 21 77 43 28 82 347 195 194 196 195 178 171 169 148 127 176 124 110 97 164 169 138 73 313 241 257 284 288 299 319 269 222
341 345 357 357 358 6 9 360 29 32 55 54 27 11 74 51 32 151 359 261 188 183 197 180 166 170 116 134 118 120 111 139 172 154 155 145 242 248 260 293 285 291 302 282 223
343 334 342 352 348 353 21 20 49 48 62 50 33 38 48 4 3 75 129 125 128 166 177 183 172 152 116 105 93 41 156 128 162 178 145 186 180 200 258 270 279 282 286 282 232
344 327 315 336 339 328 343 53 48 52 21 25 21 357 19 337 338 67 102 130 80 149 147 167 169 111 72 113 186 162 105 142 139 194 171 196 207 163 184 246 256 274 276 278 249
345 335 308 300 337 347 283 301 310 4 45 52 346 325 326 36 49 75 114 141 167 112 119 224 169 192 140 139 147 123 111 140 196 201 184 196 204 174 181 195 268 275 270 273 250
345 343 320 284 296 338 7 112 68 37 82 38 55 31 14 13 53 52 90 102 122 118 106 292 171 153 145 178 117 140 120 119 317 141 166 184 205 215 184 189 218 248 259 265 253
344 341 333 296 275 299 324 327 58 46 72 39 24 37 15 17 45 27 23 88 79 70 359 273 137 141 136 144 98 59 127 143 121 31 53 147 250 226 231 220 212 230 247 251 257
337 344 342 336 294 274 282 262 299 346 70 8 20 23 40 6 31 36 34 84 63 90 346 71 193 145 148 120 126 104 140 139 134 77 222 232 278 244 227 225 222 236 242 249 246
336 347 359 346 303 322 312 275 228 154 53 326 20 23 67 55 145 25 37 72 96 106 304 243 154 141 139 165 130 187 69 128 111 97 25 310 306 252 204 238 237 244 239 245 243
330 348 9 13 351 17 193 355 150 50 4 8 301 187 195 119 24 115 26 72 108 87 30 68 62 60 139 84 95 145 70 54 59 86 257 225 187 254 210 219 244 232 242 241 237
316 349 6 12 11 116 187 221 40 87 32 312 12 306 340 128 100 315 161 109 140 108 155 34 40 57 107 86 37 91 83 44 3 219 232 337 251 247 234 243 222 236 246 240 231
133 11 14 9 357 73 199 30 68 213 219 279 251 300 57 124 107 187 221 140 231 106 131 168 169 172 122 136 169 143 171 160 194 198 242 298 228 245 244 258 251 256 248 250 228
132 66 19 9 350 275 35 44 187 198 196 212 140 177 163 113 145 172 231 256 204 159 148 138 83 93 360 93 36 172 173 150 92 14 37 244 297 281 274 269 273 274 265 249 218
181 335 9 13 14 321 77 200 61 217 207 208 109 179 179 163 133 130 163 198 222 177 166 193 102 244 134 156 52 116 164 108 92 221 259 281 272 236 287 281 274 256 245 239 205
144 298 354 359 347 344 93 232 258 256 224 191 276 288 163 182 160 181 199 254 181 183 166 159 117 144 146 197 169 150 193 131 124 161 195 283 263 225 233 263 289 269 234 212 196
99 41 358 353 355 51 62 239 300 284 217 268 280 263 240 183 186 221 209 213 180 159 181 197 128 172 188 53 293 189 212 173 210 200 218 146 259 224 241 268 282 264 210 196 190
81 27 0 10 60 339 320 300 266 286 241 222 248 208 215 214 215 196 199 178 173 165 171 188 188 117 158 340 194 209 201 224 114 116 203 194 260 227 309 322 261 215 194 190 189
87 24 24 50 71 76 1 294 304 292 261 230 245 248 249 247 209 214 220 202 177 192 185 142 164 180 187 189 144 194 200 205 205 233 233 234 283 293 285 272 247 208 205 198 195
85 133 107 309 353 12 318 293 296 305 298 287 295 234 224 271 285 212 199 196 195 193 151 159 210 189 254 215 178 198 212 208 218 230 234 190 234 238 266 261 248 240 211 205 202
120 150 173 187 262 348 256 261 287 337 333 308 326 338 293 251 236 280 175 185 207 171 156 152 237 114 296 265 212 237 212 211 221 229 243 247 263 245 266 288 261 238 219 206 206
132 140 176 133 97 92 223 275 304 17 286 263 17 350 317 278 307 287 251 253 178 162 181 154 144 110 263 357 348 297 230 215 202 211 222 237 243 200 246 238 245 239 216 213 215
Wind_Speed_850mb
43 46 46 46 38 36 35 25 24 21 19 14 14 10 11 12 15 22 17 10 36 18 14 29 29 24 31 19 16 11 6 11 15 15 10 10 8 15 17 20 17 6 12 11 48
43 46 48 44 36 31 27 21 24 16 14 14 11 8 6 10 9 23 17 7 18 24 15 29 34 28 15 13 13 10 9 7 8 5 9 12 9 17 17 41 21 39 7 32 53
42 46 45 35 26 24 21 23 17 15 16 15 12 8 1 7 5 9 28 5 12 24 22 31 31 30 13 16 7 7 13 8 11 20 14 13 6 11 14 8 17 45 40 15 48
39 43 40 33 26 21 20 15 14 14 16 14 13 8 3 11 3 13 4 21 11 22 27 20 28 21 10 13 12 4 6 13 9 9 5 6 5 15 10 14 34 48 40 29 49
35 38 34 29 24 23 20 10 12 15 14 12 11 7 4 1 5 1 12 19 16 27 34 24 32 17 9 13 17 2 8 22 14 6 14 16 8 8 49 44 44 46 22 31 39
32 31 29 22 20 24 21 12 10 9 10 11 11 6 2 2 7 11 16 15 22 34 35 27 22 22 13 9 12 15 17 34 27 14 15 13 14 9 54 42 40 49 34 26 38
26 27 22 18 15 20 20 16 11 7 9 10 11 8 8 5 4 12 8 9 19 40 41 30 16 18 14 10 14 19 13 12 13 18 7 10 12 19 71 55 63 58 43 24 42
24 20 20 16 10 14 14 11 9 8 8 9 12 6 5 9 12 3 8 0 17 36 40 32 10 16 6 12 9 9 10 11 11 34 22 31 13 28 52 37 56 57 50 32 25
24 18 14 14 10 13 11 10 11 11 11 11 14 8 4 6 15 7 2 0 9 23 35 29 13 6 8 11 7 6 8 11 14 38 16 19 9 24 20 48 55 63 55 40 22
27 16 13 12 13 10 4 6 7 13 10 6 16 7 12 15 11 6 8 10 12 28 27 17 6 5 4 6 25 12 9 5 10 22 20 26 5 25 48 49 57 65 49 45 30
27 19 11 10 12 12 6 5 7 1 21 9 9 5 15 10 10 7 10 18 10 18 7 21 9 20 8 6 9 12 11 12 7 9 18 24 16 27 39 35 53 70 56 54 40
25 21 12 10 9 9 5 2 7 5 7 17 7 8 13 12 9 11 6 6 4 9 6 8 13 13 14 7 11 12 11 4 2 4 12 15 19 18 39 44 63 74 72 65 56
23 19 14 9 11 9 5 1 3 7 6 9 12 11 9 9 9 11 13 12 14 10 4 3 8 18 11 8 10 3 11 7 4 3 3 9 12 16 17 35 52 67 69 54 40
22 17 12 8 7 6 5 4 3 3 7 10 6 7 7 5 9 11 13 8 8 9 7 1 5 21 14 8 9 5 5 9 5 5 6 2 8 13 23 26 22 59 73 75 56
18 15 12 7 7 5 6 9 8 3 10 14 6 4 8 6 10 9 18 15 9 13 1 4 11 18 11 8 5 5 5 9 6 7 6 3 4 8 5 17 40 42 48 67 57
13 11 12 9 4 4 1 2 7 10 4 6 4 2 4 5 6 3 8 13 13 7 1 3 5 7 6 5 5 7 10 13 9 5 4 13 12 8 12 14 10 21 53 63 64
6 9 12 10 7 4 2 5 8 12 2 4 4 3 1 6 6 4 2 7 6 7 0 8 5 2 4 12 5 9 7 3 3 3 10 5 10 23 8 14 14 19 29 36 53
4 6 13 11 6 2 1 7 15 6 5 4 4 2 5 3 6 6 6 7 5 9 5 7 7 7 2 4 10 7 11 8 11 7 8 1 14 11 10 23 41 42 36 28 34
11 8 18 15 6 1 3 9 11 10 7 3 3 4 4 3 5 4 6 4 9 11 9 6 3 3 2 3 2 8 7 8 8 4 5 8 14 15 15 19 27 31 33 38 41
13 5 22 19 9 6 8 2 1 6 5 2 3 5 6 9 6 4 4 5 6 10 7 7 8 3 4 3 8 3 9 5 4 3 7 10 10 12 13 13 11 17 31 33 41
8 1 21 21 12 4 6 8 7 11 9 4 4 4 3 8 10 11 12 5 7 9 12 9 7 4 12 10 12 6 6 3 7 8 8 6 11 12 10 13 16 19 26 34 50
4 4 17 20 5 5 3 5 6 6 4 6 2 6 5 5 10 8 13 10 25 24 12 12 9 7 8 2 3 8 7 10 6 9 2 6 18 6 12 15 22 23 23 33 50
5 4 10 18 6 7 11 8 6 4 6 5 7 12 7 8 6 12 10 10 31 20 15 12 3 6 3 3 1 10 12 15 6 4 13 7 11 0 10 13 9 20 27 42 53
4 5 6 10 8 3 8 7 9 9 9 11 7 5 6 8 11 7 9 7 20 21 19 13 6 10 13 9 9 11 17 27 24 15 15 30 19 11 9 10 12 20 32 48 54
6 3 2 5 5 4 1 5 8 8 7 9 5 8 8 5 7 9 8 3 6 13 11 10 11 10 9 7 8 12 18 29 39 36 24 3 28 26 26 13 21 29 35 48 54
5 8 6 5 4 4 1 3 5 11 7 11 8 18 6 8 9 7 9 9 11 6 13 6 4 5 7 5 12 9 16 25 39 41 44 46 54 27 32 32 23 37 48 59 60
6 6 5 2 2 5 5 4 3 8 16 19 11 17 16 12 28 35 25 9 8 15 14 13 11 5 8 5 7 12 30 32 16 17 37 38 52 6 13 23 32 36 47 61 62
Wind_Direction_850mb
352 344 343 340 342 337 338 334 325 322 315 307 315 302 261 234 221 246 232 219 203 184 200 191 188 189 190 181 183 157 112 179 179 159 157 70 52 355 9 342 338 289 266 237 162
349 346 349 352 343 343 350 347 339 342 331 327 330 334 286 235 230 278 225 177 208 201 190 190 175 190 189 173 188 157 200 155 163 105 99 79 75 349 5 342 35 21 20 161 167
350 354 356 358 358 4 9 1 9 7 354 346 345 336 163 165 190 247 229 257 247 217 207 181 177 190 202 160 179 189 201 148 46 102 118 108 47 0 6 5 26 339 327 201 184
354 358 3 11 15 16 12 19 29 12 4 3 1 350 157 169 156 128 148 287 211 220 201 172 171 178 198 166 159 171 168 146 126 71 81 54 321 340 296 251 316 331 318 225 197
355 0 10 14 20 17 17 36 26 23 28 21 13 14 73 226 330 163 338 228 203 194 204 165 165 168 202 150 135 198 122 142 129 149 38 338 3 324 287 281 308 321 329 203 205
351 2 11 22 22 21 23 19 14 27 43 24 19 45 49 45 2 212 4 186 197 192 199 172 175 170 189 137 149 159 152 145 168 134 26 14 340 342 267 280 292 325 329 237 220
348 357 8 9 16 19 17 26 29 40 41 39 18 21 77 43 28 82 347 195 194 196 195 178 171 169 148 127 176 124 110 97 164 169 138 73 313 241 257 284 288 299 319 269 222
341 345 357 357 358 6 9 360 29 32 55 54 27 11 74 51 32 151 359 261 188 183 197 180 166 170 116 134 118 120 111 139 172 154 155 145 242 248 260 293 285 291 302 282 223
343 334 342 352 348 353 21 20 49 48 62 50 33 38 48 4 3 75 129 125 128 166 177 183 172 152 116 105 93 41 156 128 162 178 145 186 180 200 258 270 279 282 286 282 232
344 327 315 336 339 328 343 53 48 52 21 25 21 357 19 337 338 67 102 130 80 149 147 167 169 111 72 113 186 162 105 142 139 194 171 196 207 163 184 246 256 274 276 278 249
345 335 308 300 337 347 283 301 310 4 45 52 346 325 326 36 49 75 114 141 167 112 119 224 169 192 140 139 147 123 111 140 196 201 184 196 204 174 181 195 268 275 270 273 250
345 343 320 284 296 338 7 112 68 37 82 38 55 31 14 13 53 52 90 102 122 118 106 292 171 153 145 178 117 140 120 119 317 141 166 184 205 215 184 189 218 248 259 265 253
344 341 333 296 275 299 324 327 58 46 72 39 24 37 15 17 45 27 23 88 79 70 359 273 137 141 136 144 98 59 127 143 121 31 53 147 250 226 231 220 212 230 247 251 257
337 344 342 336 294 274 282 262 299 346 70 8 20 23 40 6 31 36 34 84 63 90 346 71 193 145 148 120 126 104 140 139 134 77 222 232 278 244 227 225 222 236 242 249 246
336 347 359 346 303 322 312 275 228 154 53 326 20 23 67 55 145 25 37 72 96 106 304 243 154 141 139 165 130 187 69 128 111 97 25 310 306 252 204 238 237 244 239 245 243
330 348 9 13 351 17 193 355 150 50 4 8 301 187 195 119 24 115 26 72 108 87 30 68 62 60 139 84 95 145 70 54 59 86 257 225 187 254 210 219 244 232 242 241 237
316 349 6 12 11 116 187 221 40 87 32 312 12 306 340 128 100 315 161 109 140 108 155 34 40 57 107 86 37 91 83 44 3 219 232 337 251 247 234 243 222 236 246 240 231
133 11 14 9 357 73 199 30 68 213 219 279 251 300 57 124 107 187 221 140 231 106 131 168 169 172 122 136 169 143 171 160 194 198 242 298 228 245 244 258 251 256 248 250 228
132 66 19 9 350 275 35 44 187 198 196 212 140 177 163 113 145 172 231 256 204 159 148 138 83 93 360 93 36 172 173 150 92 14 37 244 297 281 274 269 273 274 265 249 218
181 335 9 13 14 321 77 200 61 217 207 208 109 179 179 163 133 130 163 198 222 177 166 193 102 244 134 156 52 116 164 108 92 221 259 281 272 236 287 281 274 256 245 239 205
144 298 354 359 347 344 93 232 258 256 224 191 276 288 163 182 160 181 199 254 181 183 166 159 117 144 146 197 169 150 193 131 124 161 195 283 263 225 233 263 289 269 234 212 196
99 41 358 353 355 51 62 239 300 284 217 268 280 263 240 183 186 221 209 213 180 159 181 197 128 172 188 53 293 189 212 173 210 200 218 146 259 224 241 268 282 264 210 196 190
81 27 0 10 60 339 320 300 266 286 241 222 248 208 215 214 215 196 199 178 173 165 171 188 188 117 158 340 194 209 201 224 114 116 203 194 260 227 309 322 261 215 194 190 189
87 24 24 50 71 76 1 294 304 292 261 230 245 248 249 247 209 214 220 202 177 192 185 142 164 180 187 189 144 194 200 205 205 233 233 234 283 293 285 272 247 208 205 198 195
85 133 107 309 353 12 318 293 296 305 298 287 295 234 224 271 285 212 199 196 195 193 151 159 210 189 254 215 178 198 212 208 218 230 234 190 234 238 266 261 248 240 211 205 202
120 150 173 187 262 348 256 261 287 337 333 308 326 338 293 251 236 280 175 185 207 171 156 152 237 114 296 265 212 237 212 211 221 229 243 247 263 245 266 288 261 238 219 206 206
132 140 176 133 97 92 223 275 304 17 286 263 17 350 317 278 307 287 251 253 178 162 181 154 144 110 263 357 348 297 230 215 202 211 222 237 243 200 246 238 245 239 216 213 215